www.pogodaiklimat.ru

Погода и климат >> Архив погоды >> Россия >> Якутия >> Батагай-Алыта


ПОГОДА в Батагай-Алыте

  • Прогноз погоды в Батагай-Алыте
  • Монитор погоды в Батагай-Алыте

АРХИВ ПОГОДЫ в Батагай-Алыте

Время (UTC), дата Ветер
(напр.,м/с)
 
Видим.   Явления Облачность Т
(С)
Тd
(С)
f
(%)
Тe
(С)
Тes
(С)
Комфортность P
(гПа)
Po
(гПа)
Тmin
(С)
Tmax
(С)
R
(мм)
R24
(мм)
S
(см)
18 15.07 С 1 н/о н/о +7.0 +4.3 83 +6 +6 1015.6 957.0
21 15.07 ЮЗ 1 н/о н/о +7.6 +4.8 82 +7 +7 1015.3 956.8 +6.1
00 16.07 ЮВ 1 50 км 8/4 1500 м
[Sc Ac trans]
+11.9 +5.7 66 +12 +15 1013.9 956.3 +6.1
03 16.07 Ю 3 50 км 3/3 1500 м
[Cu med, cong]
+16.0 +6.3 53 +16 +22 1011.6 954.9
06 16.07 ЮВ 2 50 км 3/3 1500 м
[Cu med, cong]
+18.7 +5.9 43 +20 +25 1009.2 953.2
09 16.07 ЮВ 3 н/о н/о +19.0 +6.0 43 +20 +20 1007.6 951.8 +19.6
12 16.07 В 2 н/о н/о +14.6 +6.4 58 +14 +14 1008.3 951.6
15 16.07 СЗ 2 н/о н/о +8.5 +5.3 80 +7 +7 1009.1 951.2
18 16.07 СЗ 1 н/о н/о +8.7 +6.4 85 +8 +8 1008.1 950.3
21 16.07 штиль 0 н/о н/о +10.3 +7.2 81 +10 +10 1006.7 949.2 +8.4
00 17.07 В 1 4000 м в посл. час дождь {ливн. осадки} 10/10 600 м
[Cb cap Ac und]
+11.1 +8.1 82 +11 +11 1005.7 948.5 +8.5
03 17.07 В 2 4000 м дым ?/? +11.7 +6.8 72 +11 +11 1004.5 947.5
06 17.07 С 5 4000 м слаб. ливневой дождь ?/? +10.1 +8.4 89 +7 +7 1004.8 947.4
09 17.07 С 9-14
{14}
н/о н/о +7.5 +7.2 98 +2 +2 1005.8 947.9 +11.7
12 17.07 С 7-13
{14}
н/о н/о +5.2 +4.8 97 -1 -1 1008.6 950.0
15 17.07 С 4
{14}
н/о н/о +3.5 +2.7 94 -1 -1 1011.0 951.9
18 17.07 С 5
{11}
н/о н/о +1.8 +1.2 96 -4 -4 1011.7 952.2
21 17.07 С 7-12
{13}
н/о н/о +2.5 +1.2 91 -4 -4 1012.9 953.5 +1.7
00 18.07 -10
{15}
50 км н/о +2.6 +0.4 85 -4 -4 1014.8 955.2 +1.8 0.7
03 18.07 С 9 10 км 10/10 600 м
[Cb cap]
+3.3 +1.5 88 -4 -4 1015.6 956.1
06 18.07 С 8 50 км 9/9 600 м
[Cb cap]
+5.6 +1.5 75 0 0 1016.2 957.2
09 18.07 С 6-11
{15}
н/о н/о +5.8 +2.0 77 +1 +1 1017.5 958.5 +6.8
12 18.07 С 6
{14}
н/о н/о +3.8 +3.2 96 -2 -2 1018.7 959.2
15 18.07 СВ 4
{10}
н/о н/о +4.2 +3.5 95 -0 -0 1018.6 959.2
18 18.07 С 6-11
{13}
н/о н/о +3.5 +2.9 96 -2 -2 1018.4 958.9
21 18.07 С 6
{12}
н/о н/о +2.8 +2.0 94 -3 -3 1019.2 959.5 +2.8
00 19.07 С 8-10
{14}
20 км слаб. ливневой дождь 9/9 450 м
[Cb cap]
+3.1 +1.5 89 -4 -3 1019.9 960.1 +2.4 0.0
03 19.07 С 8 50 км 4/4 600 м
[Cb cap]
+7.6 +3.1 73 +3 +4 1018.6 959.8
06 19.07 С 9 50 км 4/4 1000 м
[Cu med, cong]
+1.0 +3.6 100 -7 -6 1018.5 960.2
09 19.07 С 6-10
{16}
н/о н/о +9.6 +2.2 60 +6 +6 1019.7 961.4 +11.0
12 19.07 С 4
{11}
н/о н/о +8.4 +5.4 81 +5 +5 1020.9 962.2
15 19.07 С 5
{10}
н/о н/о +5.7 +5.0 95 +1 +1 1022.0 962.7
18 19.07 С 2 н/о н/о +5.4 +4.9 97 +3 +3 1022.3 963.0
21 19.07 СЗ 1 н/о н/о +5.9 +4.9 93 +5 +5 1022.0 962.8 +4.2
00 20.07 З 1 50 км 4/4 1000 м
[Cb cap]
+9.9 +5.1 72 +10 +14 1020.8 962.5 +4.2
03 20.07 В 1 50 км 4/4 1000 м
[Cu med, cong]
+13.4 +6.3 62 +14 +21 1019.2 961.6
06 20.07 В 1 50 км 3/3 1500 м
[Cu med, cong]
+16.3 +4.6 46 +17 +24 1017.0 960.1
09 20.07 ЮВ 3 н/о н/о +17.0 +3.5 41 +17 +17 1015.7 959.0 +18.4
12 20.07 В 2 н/о н/о +12.6 +3.8 55 +12 +12 1016.4 958.8
15 20.07 СЗ 2 н/о н/о +8.0 +3.5 73 +6 +6 1017.9 959.3
18 20.07 штиль 0 н/о н/о +5.2 +2.7 84 +4 +4 1018.5 959.3
21 20.07 З 3 н/о н/о +13.5 +5.6 59 +13 +13 1015.8 958.4 +4.5
00 21.07 З 4 н/о н/о +17.1 +5.7 47 +17 +17 1013.5 957.0
03 21.07 З 11-16
{16}
н/о н/о +19.2 +5.5 41 +19 +19 1011.7 955.7
06 21.07 З 9-14
{16}
н/о н/о +18.9 +7.3 47 +19 +19 1011.4 955.4
09 21.07 З 8-11
{15}
н/о н/о +19.8 +8.1 47 +20 +20 1010.9 955.1 +19.8
12 21.07 СВ 4
{15}
н/о н/о +8.7 +6.0 83 +6 +6 1017.1 958.8
15 21.07 С 2 н/о н/о +6.3 +4.6 89 +4 +4 1019.8 960.8
18 21.07 СЗ 1 н/о н/о +6.4 +4.3 86 +5 +5 1021.2 962.1
21 21.07 Ю 2 н/о н/о +6.2 +4.2 87 +4 +4 1022.1 962.9 +5.9
00 22.07 ЮВ 2 н/о н/о +6.5 +5.0 90 +4 +4 1022.6 963.5
03 22.07 СЗ 1 н/о н/о +9.6 +5.0 73 +9 +9 1021.6 963.1
06 22.07 ЮЗ 2 н/о н/о +13.8 +5.0 55 +13 +13 1019.5 962.0
09 22.07 ЮВ 3 н/о н/о +14.6 +4.7 51 +14 +14 1018.6 961.3 +14.9
12 22.07 В 1 н/о н/о +11.1 +4.5 64 +11 +11 1019.0 961.0
15 22.07 СЗ 2 н/о н/о +2.5 +1.1 90 -1 -1 1020.7 960.8

 

Местоположение метеостанции Батагай-Алыта (Якутия, Россия): широта 67.78 долгота 130.40 высота над уровнем моря 491 м.

В архиве по умолчанию представлена погода в Батагай-Алыте за последнюю неделю. Архивные данные за месяц целиком и за предыдущие месяцы, начиная с января 2011 года, Вы можете получить, выбрав интересующий диапазон дат из раскрывающегося списка и нажав кнопку "Ввод!".


*Определитесь, кто Вы:
робот инопланетянин человек

Внимание! Время в таблицах - всемирное. Для получения местного времени необходимо прибавить поправку, которая равна 9 ч.

Смотрите также архив погоды в соседних городах и на ближайших метеорологических станциях:

Погода в Екюччю (Якутия, Россия) (124 км)
Погода в Верхоянске (Якутия, Россия) (129 км)
Погода в Батагае (Якутия, Россия) (178 км)
Погода в Себян-Кюеле (Якутия, Россия) (276 км)
Погода в Джарджане (Якутия, Россия) (284 км)
Погода в Усть-Чарках (Якутия, Россия) (288 км)
Погода в Усть-Куйге (Якутия, Россия) (323 км)
Погода в Жиганске (Якутия, Россия) (324 км)
Погода в Кюсюре (Якутия, Россия) (343 км)
Погода в Иэме (Якутия, Россия) (365 км)

Пояснения к столбцам:

Ветер - указаны скорость ветра в м/с - средняя за 10 мин, порывы в срок и между сроками (в фигурных скобках) и направление, откуда дует ветер: С - северный, СВ - северо-восточный, В - восточный, ЮВ - юго-восточный, Ю - южный, ЮЗ - юго-западный, З - западный, СЗ - северо-западный.
Видимость - горизонтальная дальность видимости в метрах или километрах. При видимости от 1 до 10 км при отсутствии осадков обычно наблюдается дымка, при ухудшении видимости до 1 км и менее - туман. В сухую погоду видимость может ухудшаться дымом, пылью или мглою.
Явления - указаны атмосферные явления, наблюдавшиеся в срок или в последний час перед сроком; фигурными скобками обозначены явления, наблюдавшиеся между сроками (за 1-3 часа до срока); квадратными скобками обозначены град или гололедные отложения с указанием их диаметра в мм.
Облачность - указаны через наклонную черту общая и нижняя облачность в баллах и высота нижней границы облаков в метрах; квадратными скобками обозначены формы облаков: Ci - перистые, Cs - перисто-слоистые, Cc - перисто-кучевые, Ac - высококучевые, As - высокослоистые, Sc - слоисто-кучевые, Ns - слоисто-дождевые, Cu - кучевые, Cb - кучево-дождевые. Подробнее классификацию облаков см. в Атласе облаков (PDF).
T - Температура воздуха - температура, измеренная на высоте 2 м над землей.
Td - Температура точки росы - температура, при понижении до которой содержащийся в воздухе водяной пар достигнет насыщения.
f - Относительная влажность воздуха - влажноcть воздуха, измеренная на высоте 2 м над землей.
Te - Эффективная температура - температура, которую ощущает одетый по сезону человек в тени. Характеристика душности погоды. При расчете учитывается влияние влажности воздуха и скорости ветра на теплоощущения человека.
Tes - Эффективная температура на солнце - температура, которую ощущает человек, с поправкой на солнечный нагрев. Характеристика знойности погоды. Зависит от высоты солнца над горизонтом, облачности и скорости ветра. Ночью, в пасмурную погоду, а также при ветре 12 м/с и более поправка равна нулю.
P - Атмосферное давление - приведенное к уровню моря атмосферное давление.
Po - Атмосферное давление - измеренное на уровне метеостанции атмосферное давление.
Tmin - Минимальная температура - минимум температуры воздуха на высоте 2 м над землей.
Tmax - Максимальная температура - максимум температуры воздуха на высоте 2 м над землей.
R - Количество осадков - Количество выпавших осадков за период времени, мм. При наведении курсора мыши на число - период времени, за который выпало указанное количество осадков.
R24 - Количество осадков - Количество выпавших осадков за 24 часа, мм.
S - Снежный покров - Высота снежного покрова, см. При наведении курсора мыши на число - состояние снежного покрова и степень покрытия местности в баллах.